Delta Virtual Airport Information Service

Cape Town International Airport

ICAO: FACT Country: South Africa
Latitude: -33.9648 Longitude: 18.6017
Latest Arrival : UAL1122 (A) (KEWR-FACT) Latest Departure : DLH577 (FACT-EDDF)


WX CaptureLIVE
Data provided by noaa.gov | Fetched at 18:48:46

METAR : FACT 172200Z VRB01KT 9999 FEW035 12/10 Q1016 NOSIG

TAF : FACT 172200Z VRB01KT 9999 FEW035 12/10 Q1016 NOSIG


Runway Data for FACT
Data provided by openaviationdata.com

Runway ID Mag Var Hdg Length Elevation Surface ILS Freq ILS Id ILS Slope
1 -23 10526 ft 151 ft Asphalt 110.3 CTI 3
16 -23 158° 5578 ft 151 ft Asphalt -- -- --
19 -23 188° 10526 ft 151 ft Asphalt 109.1 KSI 3
34 -23 338° 5578 ft 151 ft Asphalt -- -- --

Cape Town International Airport, South Africa
Use only for reference purposes



Not for navigational purposes.